Year,Month,Day,Hour,Minute,Value (Times are PST for temperature in C)
2013,07,25,00,00,11.80
2013,07,25,00,01,11.80
2013,07,25,00,02,11.80
2013,07,25,00,03,11.80
2013,07,25,00,04,11.80
2013,07,25,00,05,11.80
2013,07,25,00,06,11.80
2013,07,25,00,07,11.70
2013,07,25,00,08,11.70
2013,07,25,00,09,11.70
2013,07,25,00,10,11.70
2013,07,25,00,11,11.70
2013,07,25,00,12,11.70
2013,07,25,00,13,11.70
2013,07,25,00,14,11.70
2013,07,25,00,15,11.70
2013,07,25,00,16,11.70
2013,07,25,00,17,11.70
2013,07,25,00,18,11.80
2013,07,25,00,19,11.80
2013,07,25,00,20,11.80
2013,07,25,00,21,11.80
2013,07,25,00,22,11.80
2013,07,25,00,23,11.80
2013,07,25,00,24,11.80
2013,07,25,00,25,11.80
2013,07,25,00,26,11.80
2013,07,25,00,27,11.80
2013,07,25,00,28,11.80
2013,07,25,00,29,11.80
2013,07,25,00,30,11.80
2013,07,25,00,31,11.70
2013,07,25,00,32,11.70
2013,07,25,00,33,11.70
2013,07,25,00,34,11.70
2013,07,25,00,35,11.70
2013,07,25,00,36,11.70
2013,07,25,00,37,11.70
2013,07,25,00,38,11.70
2013,07,25,00,39,11.70
2013,07,25,00,40,11.70
2013,07,25,00,41,11.70
2013,07,25,00,42,11.70
2013,07,25,00,43,11.70
2013,07,25,00,44,11.70
2013,07,25,00,45,11.70
2013,07,25,00,46,11.70
2013,07,25,00,47,11.70
2013,07,25,00,48,11.70
2013,07,25,00,49,11.70
2013,07,25,00,50,11.70
2013,07,25,00,51,11.70
2013,07,25,00,52,11.70
2013,07,25,00,53,11.70
2013,07,25,00,54,11.70
2013,07,25,00,55,11.70
2013,07,25,00,56,11.70
2013,07,25,00,57,11.70
2013,07,25,00,58,11.70
2013,07,25,00,59,11.70
2013,07,25,01,00,11.70
2013,07,25,01,01,11.70
2013,07,25,01,02,11.70
2013,07,25,01,03,11.70
2013,07,25,01,04,11.70
2013,07,25,01,05,11.70
2013,07,25,01,06,11.70
2013,07,25,01,07,11.70
2013,07,25,01,08,11.70
2013,07,25,01,09,11.70
2013,07,25,01,10,11.70
2013,07,25,01,11,11.80
2013,07,25,01,12,11.80
2013,07,25,01,13,11.80
2013,07,25,01,14,11.80
2013,07,25,01,15,11.80
2013,07,25,01,16,11.80
2013,07,25,01,17,11.80
2013,07,25,01,18,11.80
2013,07,25,01,19,11.80
2013,07,25,01,20,11.80
2013,07,25,01,21,11.80
2013,07,25,01,22,11.90
2013,07,25,01,23,11.90
2013,07,25,01,24,11.90
2013,07,25,01,25,11.90
2013,07,25,01,26,11.90
2013,07,25,01,27,11.90
2013,07,25,01,28,11.90
2013,07,25,01,29,12.00
2013,07,25,01,30,12.00
2013,07,25,01,31,12.00
2013,07,25,01,32,12.00
2013,07,25,01,33,12.00
2013,07,25,01,34,12.00
2013,07,25,01,35,12.00
2013,07,25,01,36,12.00
2013,07,25,01,37,12.00
2013,07,25,01,38,12.10
2013,07,25,01,39,12.10
2013,07,25,01,40,12.10
2013,07,25,01,41,12.10
2013,07,25,01,42,12.10
2013,07,25,01,43,12.10
2013,07,25,01,44,12.20
2013,07,25,01,45,12.20
2013,07,25,01,46,12.20
2013,07,25,01,47,12.20
2013,07,25,01,48,12.30
2013,07,25,01,49,12.30
2013,07,25,01,50,12.30
2013,07,25,01,51,12.30
2013,07,25,01,52,12.40
2013,07,25,01,53,12.40
2013,07,25,01,54,12.40
2013,07,25,01,55,12.50
2013,07,25,01,56,12.50
2013,07,25,01,57,12.60
2013,07,25,01,58,12.60
2013,07,25,01,59,12.60
2013,07,25,02,00,12.60
2013,07,25,02,01,12.70
2013,07,25,02,02,12.70
2013,07,25,02,03,12.80
2013,07,25,02,04,12.80
2013,07,25,02,05,12.80
2013,07,25,02,06,12.80
2013,07,25,02,07,12.80
2013,07,25,02,08,12.80
2013,07,25,02,09,12.80
2013,07,25,02,10,12.90
2013,07,25,02,11,12.90
2013,07,25,02,12,12.90
2013,07,25,02,13,13.00
2013,07,25,02,14,13.00
2013,07,25,02,15,13.10
2013,07,25,02,16,13.10
2013,07,25,02,17,13.10
2013,07,25,02,18,13.10
2013,07,25,02,19,13.10
2013,07,25,02,20,13.10
2013,07,25,02,21,13.20
2013,07,25,02,22,13.20
2013,07,25,02,23,13.20
2013,07,25,02,24,13.20
2013,07,25,02,25,13.20
2013,07,25,02,26,13.20
2013,07,25,02,27,13.20
2013,07,25,02,28,13.20
2013,07,25,02,29,13.20
2013,07,25,02,30,13.20
2013,07,25,02,31,13.20
2013,07,25,02,32,13.20
2013,07,25,02,33,13.20
2013,07,25,02,34,13.20
2013,07,25,02,35,13.10
2013,07,25,02,36,13.10
2013,07,25,02,37,13.10
2013,07,25,02,38,13.10
2013,07,25,02,39,13.10
2013,07,25,02,40,13.10
2013,07,25,02,41,13.10
2013,07,25,02,42,13.10
2013,07,25,02,43,13.20
2013,07,25,02,44,13.20
2013,07,25,02,45,13.20
2013,07,25,02,46,13.30
2013,07,25,02,47,13.30
2013,07,25,02,48,13.30
2013,07,25,02,49,13.30
2013,07,25,02,50,13.30
2013,07,25,02,51,13.30
2013,07,25,02,52,13.40
2013,07,25,02,53,13.40
2013,07,25,02,54,13.40
2013,07,25,02,55,13.40
2013,07,25,02,56,13.40
2013,07,25,02,57,13.40
2013,07,25,02,58,13.50
2013,07,25,02,59,13.50
2013,07,25,03,00,13.50
2013,07,25,03,01,13.50
2013,07,25,03,02,13.50
2013,07,25,03,03,13.50
2013,07,25,03,04,13.50
2013,07,25,03,05,13.50
2013,07,25,03,06,13.50
2013,07,25,03,07,13.40
2013,07,25,03,08,13.50
2013,07,25,03,09,13.50
2013,07,25,03,10,13.50
2013,07,25,03,11,13.60
2013,07,25,03,12,13.60
2013,07,25,03,13,13.60
2013,07,25,03,14,13.70
2013,07,25,03,15,13.70
2013,07,25,03,16,13.70
2013,07,25,03,17,13.70
2013,07,25,03,18,13.60
2013,07,25,03,19,13.60
2013,07,25,03,20,13.60
2013,07,25,03,21,13.60
2013,07,25,03,22,13.60
2013,07,25,03,23,13.60
2013,07,25,03,24,13.60
2013,07,25,03,25,13.60
2013,07,25,03,26,13.60
2013,07,25,03,27,13.60
2013,07,25,03,28,13.60
2013,07,25,03,29,13.60
2013,07,25,03,30,13.60
2013,07,25,03,31,13.60
2013,07,25,03,32,13.60
2013,07,25,03,33,13.60
2013,07,25,03,34,13.50
2013,07,25,03,35,13.60
2013,07,25,03,36,13.60
2013,07,25,03,37,13.60
2013,07,25,03,38,13.50
2013,07,25,03,39,13.50
2013,07,25,03,40,13.50
2013,07,25,03,41,13.50
2013,07,25,03,42,13.50
2013,07,25,03,43,13.50
2013,07,25,03,44,13.50
2013,07,25,03,45,13.50
2013,07,25,03,46,13.40
2013,07,25,03,47,13.40
2013,07,25,03,48,13.40
2013,07,25,03,49,13.40
2013,07,25,03,50,13.40
2013,07,25,03,51,13.40
2013,07,25,03,52,13.30
2013,07,25,03,53,13.30
2013,07,25,03,54,13.30
2013,07,25,03,55,13.30
2013,07,25,03,56,13.30
2013,07,25,03,57,13.30
2013,07,25,03,58,13.30
2013,07,25,03,59,13.30
2013,07,25,04,00,13.30
2013,07,25,04,01,13.30
2013,07,25,04,02,13.30
2013,07,25,04,03,13.30
2013,07,25,04,04,13.30
2013,07,25,04,05,13.30
2013,07,25,04,06,13.30
2013,07,25,04,07,13.30
2013,07,25,04,08,13.30
2013,07,25,04,09,13.40
2013,07,25,04,10,13.40
2013,07,25,04,11,13.40
2013,07,25,04,12,13.40
2013,07,25,04,13,13.40
2013,07,25,04,14,13.40
2013,07,25,04,15,13.40
2013,07,25,04,16,13.40
2013,07,25,04,17,13.40
2013,07,25,04,18,13.40
2013,07,25,04,19,13.40
2013,07,25,04,20,13.40
2013,07,25,04,21,13.40
2013,07,25,04,22,13.40
2013,07,25,04,23,13.40
2013,07,25,04,24,13.40
2013,07,25,04,25,13.40
2013,07,25,04,26,13.40
2013,07,25,04,27,13.40
2013,07,25,04,28,13.30
2013,07,25,04,29,13.30
2013,07,25,04,30,13.30
2013,07,25,04,31,13.30
2013,07,25,04,32,13.30
2013,07,25,04,33,13.30
2013,07,25,04,34,13.30
2013,07,25,04,35,13.30
2013,07,25,04,36,13.30
2013,07,25,04,37,13.30
2013,07,25,04,38,13.20
2013,07,25,04,39,13.20
2013,07,25,04,40,13.20
2013,07,25,04,41,13.20
2013,07,25,04,42,13.20
2013,07,25,04,43,13.20
2013,07,25,04,44,13.20
2013,07,25,04,45,13.20
2013,07,25,04,46,13.20
2013,07,25,04,47,13.10
2013,07,25,04,48,13.10
2013,07,25,04,49,13.10
2013,07,25,04,50,13.10
2013,07,25,04,51,13.10
2013,07,25,04,52,13.10
2013,07,25,04,53,13.10
2013,07,25,04,54,13.10
2013,07,25,04,55,13.00
2013,07,25,04,56,13.00
2013,07,25,04,57,13.00
2013,07,25,04,58,13.00
2013,07,25,04,59,13.00
2013,07,25,05,00,13.00
2013,07,25,05,01,13.00
2013,07,25,05,02,13.00
2013,07,25,05,03,13.00
2013,07,25,05,04,13.00
2013,07,25,05,05,13.00
2013,07,25,05,06,12.90
2013,07,25,05,07,12.90
2013,07,25,05,08,12.90
2013,07,25,05,09,12.90
2013,07,25,05,10,12.90
2013,07,25,05,11,12.90
2013,07,25,05,12,12.90
2013,07,25,05,13,12.90
2013,07,25,05,14,12.90
2013,07,25,05,15,12.90
2013,07,25,05,16,12.90
2013,07,25,05,17,12.90
2013,07,25,05,18,12.90
2013,07,25,05,19,12.90
2013,07,25,05,20,12.90
2013,07,25,05,21,12.90
2013,07,25,05,22,12.90
2013,07,25,05,23,12.90
2013,07,25,05,24,12.90
2013,07,25,05,25,12.90
2013,07,25,05,26,12.90
2013,07,25,05,27,12.90
2013,07,25,05,28,12.90
2013,07,25,05,29,12.90
2013,07,25,05,30,12.90
2013,07,25,05,31,12.90
2013,07,25,05,32,12.90
2013,07,25,05,33,12.90
2013,07,25,05,34,12.90
2013,07,25,05,35,12.90
2013,07,25,05,36,12.90
2013,07,25,05,37,12.90
2013,07,25,05,38,12.90
2013,07,25,05,39,12.90
2013,07,25,05,40,12.90
2013,07,25,05,41,12.90
2013,07,25,05,42,12.90
2013,07,25,05,43,12.90
2013,07,25,05,44,12.90
2013,07,25,05,45,12.90
2013,07,25,05,46,12.90
2013,07,25,05,47,12.90
2013,07,25,05,48,12.90
2013,07,25,05,49,12.90
2013,07,25,05,50,12.90
2013,07,25,05,51,12.90
2013,07,25,05,52,12.90
2013,07,25,05,53,12.90
2013,07,25,05,54,12.90
2013,07,25,05,55,12.90
2013,07,25,05,56,13.00
2013,07,25,05,57,13.00
2013,07,25,05,58,13.00
2013,07,25,05,59,13.00
2013,07,25,06,00,13.00
2013,07,25,06,01,13.00
2013,07,25,06,02,13.00
2013,07,25,06,03,13.00
2013,07,25,06,04,13.00
2013,07,25,06,05,13.00
2013,07,25,06,06,13.00
2013,07,25,06,07,13.00
2013,07,25,06,08,13.00
2013,07,25,06,09,13.00
2013,07,25,06,10,13.00
2013,07,25,06,11,13.00
2013,07,25,06,12,13.00
2013,07,25,06,13,13.00
2013,07,25,06,14,13.10
2013,07,25,06,15,13.10
2013,07,25,06,16,13.10
2013,07,25,06,17,13.20
2013,07,25,06,18,13.20
2013,07,25,06,19,13.20
2013,07,25,06,20,13.30
2013,07,25,06,21,13.30
2013,07,25,06,22,13.30
2013,07,25,06,23,13.30
2013,07,25,06,24,13.30
2013,07,25,06,25,13.30
2013,07,25,06,26,13.30
2013,07,25,06,27,13.30
2013,07,25,06,28,13.40
2013,07,25,06,29,13.40
2013,07,25,06,30,13.40
2013,07,25,06,31,13.40
2013,07,25,06,32,13.40
2013,07,25,06,33,13.50
2013,07,25,06,34,13.50
2013,07,25,06,35,13.50
2013,07,25,06,36,13.50
2013,07,25,06,37,13.50
2013,07,25,06,38,13.50
2013,07,25,06,39,13.50
2013,07,25,06,40,13.60
2013,07,25,06,41,13.60
2013,07,25,06,42,13.60
2013,07,25,06,43,13.70
2013,07,25,06,44,13.70
2013,07,25,06,45,13.70
2013,07,25,06,46,13.70
2013,07,25,06,47,13.70
2013,07,25,06,48,13.70
2013,07,25,06,49,13.70
2013,07,25,06,50,13.70
2013,07,25,06,51,13.70
2013,07,25,06,52,13.80
2013,07,25,06,53,13.80
2013,07,25,06,54,13.80
2013,07,25,06,55,13.80
2013,07,25,06,56,13.80
2013,07,25,06,57,13.90
2013,07,25,06,58,13.90
2013,07,25,06,59,13.90
2013,07,25,07,00,13.90
2013,07,25,07,01,13.90
2013,07,25,07,02,14.00
2013,07,25,07,03,14.00
2013,07,25,07,04,14.00
2013,07,25,07,05,14.00
2013,07,25,07,06,14.10
2013,07,25,07,07,14.10
2013,07,25,07,08,14.20
2013,07,25,07,09,14.20
2013,07,25,07,10,14.20
2013,07,25,07,11,14.20
2013,07,25,07,12,14.30
2013,07,25,07,13,14.30
2013,07,25,07,14,14.30
2013,07,25,07,15,14.40
2013,07,25,07,16,14.40
2013,07,25,07,17,14.40
2013,07,25,07,18,14.40
2013,07,25,07,19,14.50
2013,07,25,07,20,14.50
2013,07,25,07,21,14.50
2013,07,25,07,22,14.60
2013,07,25,07,23,14.60
2013,07,25,07,24,14.70
2013,07,25,07,25,14.70
2013,07,25,07,26,14.70
2013,07,25,07,27,14.70
2013,07,25,07,28,14.80
2013,07,25,07,29,14.80
2013,07,25,07,30,14.80
2013,07,25,07,31,14.80
2013,07,25,07,32,14.80
2013,07,25,07,33,14.80
2013,07,25,07,34,14.80
2013,07,25,07,35,14.80
2013,07,25,07,36,14.80
2013,07,25,07,37,14.80
2013,07,25,07,38,14.80
2013,07,25,07,39,14.90
2013,07,25,07,40,14.90
2013,07,25,07,41,14.90
2013,07,25,07,42,15.00
2013,07,25,07,43,15.00
2013,07,25,07,44,15.00
2013,07,25,07,45,15.10
2013,07,25,07,46,15.10
2013,07,25,07,47,15.20
2013,07,25,07,48,15.20
2013,07,25,07,49,15.20
2013,07,25,07,50,15.20
2013,07,25,07,51,15.20
2013,07,25,07,52,15.20
2013,07,25,07,53,15.20
2013,07,25,07,54,15.20
2013,07,25,07,55,15.20
2013,07,25,07,56,15.30
2013,07,25,07,57,15.30
2013,07,25,07,58,15.30
2013,07,25,07,59,15.30
2013,07,25,08,00,15.30
2013,07,25,08,01,15.30
2013,07,25,08,02,15.30
2013,07,25,08,03,15.30
2013,07,25,08,04,15.30
2013,07,25,08,05,15.30
2013,07,25,08,06,15.40
2013,07,25,08,07,15.40
2013,07,25,08,08,15.40
2013,07,25,08,09,15.50
2013,07,25,08,10,15.50
2013,07,25,08,11,15.60
2013,07,25,08,12,15.70
2013,07,25,08,13,15.70
2013,07,25,08,14,15.80
2013,07,25,08,15,15.80
2013,07,25,08,16,15.80
2013,07,25,08,17,15.80
2013,07,25,08,18,15.90
2013,07,25,08,19,15.90
2013,07,25,08,20,16.00
2013,07,25,08,21,16.10
2013,07,25,08,22,16.10
2013,07,25,08,23,16.10
2013,07,25,08,24,16.10
2013,07,25,08,25,16.20
2013,07,25,08,26,16.20
2013,07,25,08,27,16.30
2013,07,25,08,28,16.30
2013,07,25,08,29,16.30
2013,07,25,08,30,16.40
2013,07,25,08,31,16.40
2013,07,25,08,32,16.40
2013,07,25,08,33,16.40
2013,07,25,08,34,16.40
2013,07,25,08,35,16.40
2013,07,25,08,36,16.40
2013,07,25,08,37,16.50
2013,07,25,08,38,16.60
2013,07,25,08,39,16.60
2013,07,25,08,40,16.70
2013,07,25,08,41,16.70
2013,07,25,08,42,16.70
2013,07,25,08,43,16.70
2013,07,25,08,44,16.80
2013,07,25,08,45,16.80
2013,07,25,08,46,16.90
2013,07,25,08,47,16.90
2013,07,25,08,48,17.00
2013,07,25,08,49,17.10
2013,07,25,08,50,17.20
2013,07,25,08,51,17.20
2013,07,25,08,52,17.30
2013,07,25,08,53,17.30
2013,07,25,08,54,17.30
2013,07,25,08,55,17.30
2013,07,25,08,56,17.30
2013,07,25,08,57,17.30
2013,07,25,08,58,17.30
2013,07,25,08,59,17.40
2013,07,25,09,00,17.40
2013,07,25,09,01,17.40
2013,07,25,09,02,17.50
2013,07,25,09,03,17.50
2013,07,25,09,04,17.60
2013,07,25,09,05,17.60
2013,07,25,09,06,17.70
2013,07,25,09,07,17.70
2013,07,25,09,08,17.80
2013,07,25,09,09,17.90
2013,07,25,09,10,17.90
2013,07,25,09,11,17.90
2013,07,25,09,12,17.90
2013,07,25,09,13,17.90
2013,07,25,09,14,17.90
2013,07,25,09,15,18.10
2013,07,25,09,16,18.10
2013,07,25,09,17,18.10
2013,07,25,09,18,18.20
2013,07,25,09,19,18.20
2013,07,25,09,20,18.20
2013,07,25,09,21,18.30
2013,07,25,09,22,18.30
2013,07,25,09,23,18.40
2013,07,25,09,24,18.40
2013,07,25,09,25,18.40
2013,07,25,09,26,18.50
2013,07,25,09,27,18.50
2013,07,25,09,28,18.60
2013,07,25,09,29,18.70
2013,07,25,09,30,18.70
2013,07,25,09,31,18.70
2013,07,25,09,32,18.70
2013,07,25,09,33,18.70
2013,07,25,09,34,18.60
2013,07,25,09,35,18.60
2013,07,25,09,36,18.60
2013,07,25,09,37,18.60
2013,07,25,09,38,18.60
2013,07,25,09,39,18.60
2013,07,25,09,40,18.60
2013,07,25,09,41,18.60
2013,07,25,09,42,18.70
2013,07,25,09,43,18.70
2013,07,25,09,44,18.80
2013,07,25,09,45,18.90
2013,07,25,09,46,18.90
2013,07,25,09,47,18.90
2013,07,25,09,48,18.90
2013,07,25,09,49,19.10
2013,07,25,09,50,19.10
2013,07,25,09,51,19.10
2013,07,25,09,52,19.10
2013,07,25,09,53,19.20
2013,07,25,09,54,19.20
2013,07,25,09,55,19.20
2013,07,25,09,56,19.20
2013,07,25,09,57,19.20
2013,07,25,09,58,19.20
2013,07,25,09,59,19.30
2013,07,25,10,00,19.40
2013,07,25,10,01,19.40
2013,07,25,10,02,19.40
2013,07,25,10,03,19.40
2013,07,25,10,04,19.50
2013,07,25,10,05,19.50
2013,07,25,10,06,19.60
2013,07,25,10,07,19.70
2013,07,25,10,08,19.70
2013,07,25,10,09,19.80
2013,07,25,10,10,19.80
2013,07,25,10,11,19.80
2013,07,25,10,12,19.90
2013,07,25,10,13,19.90
2013,07,25,10,14,19.90
2013,07,25,10,15,20.00
2013,07,25,10,16,20.20
2013,07,25,10,17,20.20
2013,07,25,10,18,20.30
2013,07,25,10,19,20.40
2013,07,25,10,20,20.50
2013,07,25,10,21,20.60
2013,07,25,10,22,20.70
2013,07,25,10,23,20.80
2013,07,25,10,24,20.80
2013,07,25,10,25,20.80
2013,07,25,10,26,20.80
2013,07,25,10,27,20.80
2013,07,25,10,28,20.80
2013,07,25,10,29,20.80
2013,07,25,10,30,20.80
2013,07,25,10,31,20.80
2013,07,25,10,32,20.80
2013,07,25,10,33,20.80
2013,07,25,10,34,20.90
2013,07,25,10,35,20.90
2013,07,25,10,36,21.00
2013,07,25,10,37,21.00
2013,07,25,10,38,21.10
2013,07,25,10,39,21.20
2013,07,25,10,40,21.20
2013,07,25,10,41,21.20
2013,07,25,10,42,21.30
2013,07,25,10,43,21.20
2013,07,25,10,44,21.10
2013,07,25,10,45,21.00
2013,07,25,10,46,21.00
2013,07,25,10,47,21.00
2013,07,25,10,48,21.00
2013,07,25,10,49,21.00
2013,07,25,10,50,21.10
2013,07,25,10,51,21.20
2013,07,25,10,52,21.30
2013,07,25,10,53,21.40
2013,07,25,10,54,21.50
2013,07,25,10,55,21.60
2013,07,25,10,56,21.60
2013,07,25,10,57,21.60
2013,07,25,10,58,21.60
2013,07,25,10,59,21.60
2013,07,25,11,00,21.50
2013,07,25,11,01,21.40
2013,07,25,11,02,21.40
2013,07,25,11,03,21.40
2013,07,25,11,04,21.40
2013,07,25,11,05,21.50
2013,07,25,11,06,21.60
2013,07,25,11,07,21.60
2013,07,25,11,08,21.60
2013,07,25,11,09,21.70
2013,07,25,11,10,21.80
2013,07,25,11,11,21.80
2013,07,25,11,12,21.80
2013,07,25,11,13,21.80
2013,07,25,11,14,21.80
2013,07,25,11,15,21.80
2013,07,25,11,16,21.70
2013,07,25,11,17,21.70
2013,07,25,11,18,21.80
2013,07,25,11,19,21.80
2013,07,25,11,20,21.80
2013,07,25,11,21,21.60
2013,07,25,11,22,21.50
2013,07,25,11,23,21.40
2013,07,25,11,24,21.40
2013,07,25,11,25,21.40
2013,07,25,11,26,21.40
2013,07,25,11,27,21.40
2013,07,25,11,28,21.30
2013,07,25,11,29,21.40
2013,07,25,11,30,21.40
2013,07,25,11,31,21.60
2013,07,25,11,32,21.60
2013,07,25,11,33,21.70
2013,07,25,11,34,21.80
2013,07,25,11,35,21.90
2013,07,25,11,36,22.00
2013,07,25,11,37,22.10
2013,07,25,11,38,22.20
2013,07,25,11,39,22.30
2013,07,25,11,40,22.50
2013,07,25,11,41,22.50
2013,07,25,11,42,22.50
2013,07,25,11,43,22.40
2013,07,25,11,44,22.30
2013,07,25,11,45,22.30
2013,07,25,11,46,22.30
2013,07,25,11,47,22.30
2013,07,25,11,48,22.20
2013,07,25,11,49,21.90
2013,07,25,11,50,21.80
2013,07,25,11,51,21.80
2013,07,25,11,52,21.70
2013,07,25,11,53,21.60
2013,07,25,11,54,21.60
2013,07,25,11,55,21.60
2013,07,25,11,56,21.60
2013,07,25,11,57,21.70
2013,07,25,11,58,21.70
2013,07,25,11,59,21.70
2013,07,25,12,00,21.70
2013,07,25,12,01,21.70
2013,07,25,12,02,21.70
2013,07,25,12,03,21.70
2013,07,25,12,04,21.60
2013,07,25,12,05,21.60
2013,07,25,12,06,21.60
2013,07,25,12,07,21.60
2013,07,25,12,08,21.60
2013,07,25,12,09,21.60
2013,07,25,12,10,21.50
2013,07,25,12,11,21.40
2013,07,25,12,12,21.40
2013,07,25,12,13,21.40
2013,07,25,12,14,21.40
2013,07,25,12,15,21.40
2013,07,25,12,16,21.30
2013,07,25,12,17,21.30
2013,07,25,12,18,21.30
2013,07,25,12,19,21.40
2013,07,25,12,20,21.40
2013,07,25,12,21,21.50
2013,07,25,12,22,21.60
2013,07,25,12,23,21.60
2013,07,25,12,24,21.70
2013,07,25,12,25,21.70
2013,07,25,12,26,21.70
2013,07,25,12,27,21.70
2013,07,25,12,28,21.70
2013,07,25,12,29,21.70
2013,07,25,12,30,21.70
2013,07,25,12,31,21.80
2013,07,25,12,32,21.80
2013,07,25,12,33,21.90
2013,07,25,12,34,21.80
2013,07,25,12,35,21.80
2013,07,25,12,36,21.80
2013,07,25,12,37,21.80
2013,07,25,12,38,21.80
2013,07,25,12,39,21.80
2013,07,25,12,40,21.80
2013,07,25,12,41,21.90
2013,07,25,12,42,21.90
2013,07,25,12,43,21.90
2013,07,25,12,44,21.90
2013,07,25,12,45,21.90
2013,07,25,12,46,22.00
2013,07,25,12,47,22.00
2013,07,25,12,48,22.10
2013,07,25,12,49,22.00
2013,07,25,12,50,21.90
2013,07,25,12,51,22.00
2013,07,25,12,52,22.00
2013,07,25,12,53,21.90
2013,07,25,12,54,22.00
2013,07,25,12,55,22.00
2013,07,25,12,56,22.20
2013,07,25,12,57,22.20
2013,07,25,12,58,22.30
2013,07,25,12,59,22.30
2013,07,25,13,00,22.30
2013,07,25,13,01,22.30
2013,07,25,13,02,22.40
2013,07,25,13,03,22.30
2013,07,25,13,04,22.20
2013,07,25,13,05,22.20
2013,07,25,13,06,22.20
2013,07,25,13,07,22.20
2013,07,25,13,08,22.10
2013,07,25,13,09,21.90
2013,07,25,13,10,21.80
2013,07,25,13,11,21.80
2013,07,25,13,12,21.80
2013,07,25,13,13,22.00
2013,07,25,13,14,22.10
2013,07,25,13,15,22.10
2013,07,25,13,16,22.10
2013,07,25,13,17,22.10
2013,07,25,13,18,22.10
2013,07,25,13,19,22.10
2013,07,25,13,20,22.10
2013,07,25,13,21,22.10
2013,07,25,13,22,22.00
2013,07,25,13,23,22.00
2013,07,25,13,24,22.00
2013,07,25,13,25,21.90
2013,07,25,13,26,21.90
2013,07,25,13,27,21.90
2013,07,25,13,28,21.70
2013,07,25,13,29,21.60
2013,07,25,13,30,21.50
2013,07,25,13,31,21.40
2013,07,25,13,32,21.40
2013,07,25,13,33,21.40
2013,07,25,13,34,21.40
2013,07,25,13,35,21.40
2013,07,25,13,36,21.40
2013,07,25,13,37,21.40
2013,07,25,13,38,21.50
2013,07,25,13,39,21.60
2013,07,25,13,40,21.50
2013,07,25,13,41,21.50
2013,07,25,13,42,21.60
2013,07,25,13,43,21.60
2013,07,25,13,44,21.60
2013,07,25,13,45,21.70
2013,07,25,13,46,21.70
2013,07,25,13,47,21.70
2013,07,25,13,48,21.70
2013,07,25,13,49,21.80
2013,07,25,13,50,21.80
2013,07,25,13,51,21.90
2013,07,25,13,52,21.90
2013,07,25,13,53,21.80
2013,07,25,13,54,21.90
2013,07,25,13,55,21.90
2013,07,25,13,56,22.00
2013,07,25,13,57,22.00
2013,07,25,13,58,22.10
2013,07,25,13,59,22.10
2013,07,25,14,00,22.10
2013,07,25,14,01,22.10
2013,07,25,14,02,22.10
2013,07,25,14,03,22.10
2013,07,25,14,04,22.10
2013,07,25,14,05,22.20
2013,07,25,14,06,22.20
2013,07,25,14,07,22.20
2013,07,25,14,08,22.20
2013,07,25,14,09,22.20
2013,07,25,14,10,22.20
2013,07,25,14,11,22.20
2013,07,25,14,12,22.30
2013,07,25,14,13,22.30
2013,07,25,14,14,22.30
2013,07,25,14,15,22.30
2013,07,25,14,16,22.30
2013,07,25,14,17,22.20
2013,07,25,14,18,22.30
2013,07,25,14,19,22.30
2013,07,25,14,20,22.30
2013,07,25,14,21,22.30
2013,07,25,14,22,22.30
2013,07,25,14,23,22.30
2013,07,25,14,24,22.40
2013,07,25,14,25,22.50
2013,07,25,14,26,22.60
2013,07,25,14,27,22.70
2013,07,25,14,28,22.70
2013,07,25,14,29,22.80
2013,07,25,14,30,22.80
2013,07,25,14,31,22.80
2013,07,25,14,32,22.80
2013,07,25,14,33,22.80
2013,07,25,14,34,22.90
2013,07,25,14,35,22.90
2013,07,25,14,36,22.90
2013,07,25,14,37,22.90
2013,07,25,14,38,22.90
2013,07,25,14,39,22.90
2013,07,25,14,40,22.90
2013,07,25,14,41,22.90
2013,07,25,14,42,22.90
2013,07,25,14,43,22.90
2013,07,25,14,44,23.00
2013,07,25,14,45,23.10
2013,07,25,14,46,23.10
2013,07,25,14,47,23.10
2013,07,25,14,48,23.20
2013,07,25,14,49,23.20
2013,07,25,14,50,23.20
2013,07,25,14,51,23.20
2013,07,25,14,52,23.20
2013,07,25,14,53,23.20
2013,07,25,14,54,23.20
2013,07,25,14,55,23.20
2013,07,25,14,56,23.20
2013,07,25,14,57,23.20
2013,07,25,14,58,23.30
2013,07,25,14,59,23.30
2013,07,25,15,00,23.30
2013,07,25,15,01,23.40
2013,07,25,15,02,23.40
2013,07,25,15,03,23.50
2013,07,25,15,04,23.60
2013,07,25,15,05,23.60
2013,07,25,15,06,23.60
2013,07,25,15,07,23.60
2013,07,25,15,08,23.70
2013,07,25,15,09,23.70
2013,07,25,15,10,23.70
2013,07,25,15,11,23.70
2013,07,25,15,12,23.70
2013,07,25,15,13,23.80
2013,07,25,15,14,23.90
2013,07,25,15,15,23.90
2013,07,25,15,16,23.90
2013,07,25,15,17,23.90
2013,07,25,15,18,23.90
2013,07,25,15,19,23.90
2013,07,25,15,20,23.90
2013,07,25,15,21,23.80
2013,07,25,15,22,23.90
2013,07,25,15,23,23.90
2013,07,25,15,24,23.90
2013,07,25,15,25,23.90
2013,07,25,15,26,23.90
2013,07,25,15,27,24.00
2013,07,25,15,28,24.10
2013,07,25,15,29,24.10
2013,07,25,15,30,24.30
2013,07,25,15,31,24.40
2013,07,25,15,32,24.40
2013,07,25,15,33,24.50
2013,07,25,15,34,24.60
2013,07,25,15,35,24.70
2013,07,25,15,36,24.70
2013,07,25,15,37,24.80
2013,07,25,15,38,24.80
2013,07,25,15,39,24.80
2013,07,25,15,40,24.90
2013,07,25,15,41,24.90
2013,07,25,15,42,25.00
2013,07,25,15,43,25.10
2013,07,25,15,44,25.10
2013,07,25,15,45,25.20
2013,07,25,15,46,25.20
2013,07,25,15,47,25.20
2013,07,25,15,48,25.30
2013,07,25,15,49,25.30
2013,07,25,15,50,25.30
2013,07,25,15,51,25.30
2013,07,25,15,52,25.30
2013,07,25,15,53,25.20
2013,07,25,15,54,25.20
2013,07,25,15,55,25.20
2013,07,25,15,56,25.10
2013,07,25,15,57,25.10
2013,07,25,15,58,25.10
2013,07,25,15,59,25.10
2013,07,25,16,00,25.10
2013,07,25,16,01,25.10
2013,07,25,16,02,25.10
2013,07,25,16,03,25.10
2013,07,25,16,04,25.20
2013,07,25,16,05,25.20
2013,07,25,16,06,25.10
2013,07,25,16,07,25.00
2013,07,25,16,08,25.00
2013,07,25,16,09,25.10
2013,07,25,16,10,25.10
2013,07,25,16,11,25.10
2013,07,25,16,12,25.20
2013,07,25,16,13,25.20
2013,07,25,16,14,25.20
2013,07,25,16,15,25.20
2013,07,25,16,16,25.20
2013,07,25,16,17,25.30
2013,07,25,16,18,25.20
2013,07,25,16,19,25.30
2013,07,25,16,20,25.30
2013,07,25,16,21,25.40
2013,07,25,16,22,25.40
2013,07,25,16,23,25.40
2013,07,25,16,24,25.50
2013,07,25,16,25,25.50
2013,07,25,16,26,25.60
2013,07,25,16,27,25.60
2013,07,25,16,28,25.60
2013,07,25,16,29,25.70
2013,07,25,16,30,25.70
2013,07,25,16,31,25.70
2013,07,25,16,32,25.70
2013,07,25,16,33,25.60
2013,07,25,16,34,25.60
2013,07,25,16,35,25.60
2013,07,25,16,36,25.60
2013,07,25,16,37,25.50
2013,07,25,16,38,25.50
2013,07,25,16,39,25.50
2013,07,25,16,40,25.50
2013,07,25,16,41,25.50
2013,07,25,16,42,25.50
2013,07,25,16,43,25.50
2013,07,25,16,44,25.50
2013,07,25,16,45,25.60
2013,07,25,16,46,25.60
2013,07,25,16,47,25.60
2013,07,25,16,48,25.50
2013,07,25,16,49,25.60
2013,07,25,16,50,25.60
2013,07,25,16,51,25.60
2013,07,25,16,52,25.60
2013,07,25,16,53,25.60
2013,07,25,16,54,25.60
2013,07,25,16,55,25.60
2013,07,25,16,56,25.60
2013,07,25,16,57,25.60
2013,07,25,16,58,25.50
2013,07,25,16,59,25.60
2013,07,25,17,00,25.60
2013,07,25,17,01,25.60
2013,07,25,17,02,25.70
2013,07,25,17,03,25.70
2013,07,25,17,04,25.70
2013,07,25,17,05,25.70
2013,07,25,17,06,25.70
2013,07,25,17,07,25.80
2013,07,25,17,08,25.80
2013,07,25,17,09,25.80
2013,07,25,17,10,25.80
2013,07,25,17,11,25.80
2013,07,25,17,12,25.70
2013,07,25,17,13,25.70
2013,07,25,17,14,25.70
2013,07,25,17,15,25.60
2013,07,25,17,16,25.60
2013,07,25,17,17,25.50
2013,07,25,17,18,25.60
2013,07,25,17,19,25.60